ボアッティーニ彗星

C/2007 W1 ( Boattini )

English version
Home page
Updated on September 15, 2022

---------------------------------------------------------------------

・ プロフィール

発見日 2007年11月20日
発見光度 18.1等
発見者 A. Boattini (Mt. Lemmon Survey)

・ 写真集

・ 軌道要素

The following orbital elements are taken from MPC 63599:

Epoch 2008 June 23.0 TT = JDT 2454640.5
T 2008 June 24.8848 TT                                  MPC
q   0.849681             (2000.0)            P               Q
z  -0.000031       Peri.  306.5513      +0.1972023      +0.9775754
                   Node   334.5222      -0.8356367      +0.1282070
e   1.000027       Incl.    9.8889      -0.5126623      +0.1670606
From 1102 observations 2007 Nov. 20-2008 Aug. 18, mean residual 0".8.
     Nongravitational parameters A1 = +3.85, A2 = -0.9414.

・ 星図

・ 光度変化

        m1 = 8.5 + 5 logΔ + 12.0 log r  [   ,130]  (              〜2008年11月 1日)
        m1 = 8.5 + 5 logΔ + 25   log r  [130,   ]  (2008年11月 1日〜              )

---------------------------------------------------------------------

軌道要素はMPCのEphemerides and Orbital Elementsに掲載されたものです。
星図はステラナビゲータ Ver.8 (アストロアーツ) で作成したものです。
光度グラフはComet for Windowsで作成したものです。

---------------------------------------------------------------------

Copyright(C) Seiichi Yoshida (comet@aerith.net). All rights reserved.